Miscellaneous Local Product
Issued by NWS Hastings, NE

Home | Current Version | Previous Version | Text Only | Print | Product List | Glossary Off
Versions: 1 2 3 4 5 6 7 8 9 10 11 12 13 14 15 16 17 18 19 20 21 22 23 24 25 26 27 28 29 30 31 32 33 34 35 36 37 38 39 40 41 42 43 44 45 46 47 48 49 50

000
AXUS43 KGID 220102
MISGRI

GID CWA HOURLY WEATHER ROUNDUP
NATIONAL WEATHER SERVICE HASTINGS NE
800 PM CDT SAT OCT 21 2017

NOTE: "FAIR" INDICATES FEW OR NO CLOUDS BELOW 12,000 FEET WITH NO
SIGNIFICANT WEATHER AND/OR OBSTRUCTIONS TO VISIBILITY.

...SOUTH CENTRAL NEBRASKA...

CITY           SKY/WX    TMP DP  RH WIND       PRES   REMARKS
GRAND ISLAND   CLEAR     46  39  76 NW3       29.96R
KEARNEY        CLEAR     47  35  63 NW7       29.97R
HASTINGS       CLEAR     46  37  71 SE3       29.99R
ORD            CLEAR     45  35  68 NW6       29.95R
YORK           CLEAR     48  39  71 CALM      29.97R
AURORA         CLEAR     44  38  77 CALM      29.97R
LEXINGTON      CLEAR     44  33  66 NW8       29.98R
HOLDREGE       CLEAR     44  35  71 CALM      29.98R
HEBRON         PTCLDY    54  40  57 NW7       29.97R

...NEBRASKA PANHANDLE...

CITY           SKY/WX    TMP DP  RH WIND       PRES   REMARKS
CHADRON        CLEAR     44  12  27 CALM      29.99R
ALLIANCE       CLEAR     40  17  39 W10       30.02R HAZE    WCI  33
SCOTTSBLUFF    CLEAR     47  21  35 W9        30.04R
SIDNEY         CLEAR     46  15  28 W14       30.08R

...WESTERN AND NORTH CENTRAL NEBRASKA...

CITY           SKY/WX    TMP DP  RH WIND       PRES   REMARKS
VALENTINE      CLEAR     46  29  51 W7        29.97R
AINSWORTH      PTCLDY    46  32  57 W3        29.97R
ONEILL         CLEAR     48  32  54 W6        29.95R
BROKEN BOW     CLEAR     41  34  76 N3        29.97R
IMPERIAL       CLEAR     50  19  29 NW9       30.04R
NORTH PLATTE   CLEAR     43  29  57 NW6       30.01R
MCCOOK         CLEAR     49  24  37 NW9       30.00R

...EASTERN NEBRASKA...

CITY           SKY/WX    TMP DP  RH WIND       PRES   REMARKS
NORFOLK        CLEAR     40  36  86 W6        29.92S
SO SIOUX CITY  PTCLDY    51  40  65 NW12      29.90R
TEKAMAH        CLOUDY    54  40  59 NW9       29.89R
COLUMBUS       CLEAR     46  37  71 W5        29.95S
ALBION         PTCLDY    44  38  80 CALM      29.94F
OMAHA EPPLEY   CLOUDY    55  42  61 NW9       29.90R
OFFUTT AFB     CLOUDY    56  40  55 NW9G18    29.90R
MILLARD        CLOUDY    58  43  57 NW8       29.91R
LINCOLN        CLOUDY    55  39  54 NW12      29.95R
NEBRASKA CITY  CLOUDY    57  44  61 NW10G17   29.90R
BEATRICE       CLOUDY    55  42  60 NW10      29.95R
FALLS CITY     CLOUDY    59  46  62 NW10      29.88R

...NORTHERN KANSAS...

CITY           SKY/WX    TMP DP  RH WIND       PRES   REMARKS
GOODLAND       CLEAR     47  18  31 W10       30.05R
HILL CITY      CLEAR     46  37  71 NE3       30.01R
NORTON         CLEAR     45  28  53 NW3       29.99R
PHILLIPSBURG   CLEAR     50  37  62 CALM      30.01R
SMITH CENTER   CLEAR     45  37  76 N3        30.01R
HAYS           PTCLDY    51  37  58 N8        30.02R
RUSSELL        PTCLDY    53  41  63 N10       29.99R
CONCORDIA      CLOUDY    56  40  55 NW13      29.97R
SALINA         CLOUDY    62  43  49 N18       29.94R
TOPEKA         LGT RAIN  60  56  86 NW10      29.85R



USA.gov is the U.S. government's official web portal to all federal, state and local government web resources and services.